Temp
-6 -6 -6 -6 -6 -6 -6 -6 -6 -6 -6 -6 -6 -6 -6 -6 -7 -7 -7 -7 -7 -7 -7 -7 -7 -7 -7 -7 -7 -7 -7 -7 -7 -7 -7 -7 -7 -7 -7 -8 -7 -7
-6 -6 -6 -6 -6 -6 -6 -6 -6 -6 -6 -6 -6 -6 -6 -7 -7 -7 -7 -7 -7 -7 -7 -7 -7 -7 -7 -7 -7 -7 -7 -7 -7 -7 -7 -7 -7 -7 -7 -7 -7 -7
-6 -6 -6 -6 -6 -6 -6 -6 -6 -6 -6 -6 -6 -6 -6 -7 -7 -7 -7 -7 -6 -6 -7 -7 -7 -7 -7 -7 -7 -7 -7 -7 -7 -7 -7 -7 -7 -7 -7 -7 -7 -7
-6 -6 -6 -6 -6 -6 -6 -6 -6 -6 -6 -6 -6 -6 -6 -7 -7 -7 -7 -7 -6 -6 -6 -6 -6 -7 -7 -7 -7 -7 -7 -7 -7 -7 -7 -7 -7 -7 -7 -7 -7 -7
-6 -6 -6 -6 -6 -6 -6 -6 -6 -6 -6 -6 -6 -6 -6 -6 -6 -6 -6 -6 -6 -6 -6 -6 -6 -6 -6 -7 -7 -7 -7 -7 -7 -7 -7 -7 -7 -7 -7 -7 -7 -7
-7 -7 -6 -6 -6 -6 -6 -6 -6 -6 -6 -6 -6 -6 -6 -6 -6 -6 -6 -6 -6 -6 -6 -6 -6 -7 -7 -7 -7 -7 -7 -7 -7 -7 -7 -7 -7 -7 -7 -7 -7 -7
-7 -7 -6 -6 -6 -6 -6 -6 -6 -6 -6 -6 -6 -6 -6 -6 -6 -6 -6 -6 -6 -6 -6 -6 -6 -7 -7 -7 -7 -7 -7 -7 -7 -7 -7 -7 -7 -7 -7 -7 -7 -7
-6 -6 -6 -6 -6 -6 -6 -6 -6 -6 -6 -6 -6 -6 -6 -6 -6 -6 -6 -6 -6 -6 -6 -7 -7 -7 -7 -7 -7 -7 -7 -7 -7 -7 -7 -7 -6 -6 -6 -6 -6 -6
-6 -6 -6 -6 -6 -6 -6 -6 -6 -7 -6 -6 -6 -6 -6 -6 -6 -6 -6 -6 -6 -6 -6 -6 -6 -7 -7 -7 -7 -7 -7 -7 -7 -7 -7 -6 -6 -6 -6 -6 -6 -6
-6 -6 -6 -6 -6 -6 -6 -6 -6 -6 -7 -6 -6 -6 -6 -6 -6 -6 -6 -6 -6 -6 -6 -6 -6 -6 -6 -6 -7 -7 -7 -7 -7 -7 -7 -7 -6 -6 -6 -6 -6 -6
-6 -6 -6 -6 -6 -6 -6 -6 -6 -6 -6 -6 -6 -6 -6 -6 -6 -6 -6 -6 -6 -6 -6 -6 -6 -6 -6 -6 -6 -6 -6 -6 -7 -7 -7 -7 -7 -6 -6 -6 -6 -6
-6 -6 -6 -6 -6 -6 -6 -6 -6 -6 -6 -6 -6 -6 -6 -6 -6 -6 -6 -6 -6 -6 -6 -6 -6 -6 -6 -6 -6 -6 -6 -6 -6 -6 -6 -7 -7 -6 -6 -6 -6 -6
-6 -6 -6 -6 -6 -6 -6 -6 -6 -6 -6 -6 -6 -6 -6 -6 -6 -6 -6 -6 -6 -6 -6 -6 -6 -6 -6 -6 -6 -6 -6 -6 -6 -6 -6 -6 -6 -6 -6 -6 -6 -6
-6 -6 -6 -6 -6 -6 -6 -6 -6 -6 -6 -6 -6 -6 -6 -6 -6 -6 -6 -6 -6 -6 -6 -6 -6 -6 -6 -6 -6 -6 -6 -6 -6 -6 -7 -6 -6 -6 -6 -6 -6 -6
-6 -6 -6 -6 -6 -6 -6 -6 -6 -6 -6 -6 -6 -6 -6 -6 -6 -6 -6 -6 -6 -6 -6 -6 -6 -6 -6 -6 -6 -7 -7 -6 -6 -6 -6 -6 -6 -6 -6 -6 -6 -6
-6 -6 -5 -5 -6 -6 -6 -6 -6 -6 -6 -6 -6 -6 -6 -6 -6 -6 -6 -6 -6 -6 -6 -6 -6 -7 -7 -7 -7 -7 -7 -7 -6 -6 -6 -6 -6 -6 -6 -6 -6 -6
-6 -6 -6 -6 -6 -6 -6 -6 -6 -6 -6 -6 -6 -6 -6 -6 -7 -7 -7 -7 -7 -6 -6 -7 -7 -7 -6 -6 -6 -6 -6 -6 -6 -6 -6 -6 -6 -6 -7 -7 -6 -6
-6 -6 -6 -6 -6 -6 -6 -6 -6 -6 -6 -6 -6 -6 -6 -6 -6 -6 -6 -6 -6 -6 -6 -7 -7 -7 -6 -6 -6 -6 -6 -6 -6 -6 -6 -6 -6 -6 -6 -6 -6 -6
-6 -6 -6 -6 -6 -6 -6 -6 -6 -6 -6 -5 -5 -5 -5 -6 -6 -6 -6 -6 -6 -6 -6 -6 -6 -7 -7 -6 -6 -6 -6 -6 -6 -6 -6 -6 -6 -6 -6 -6 -6 -6
-6 -6 -6 -6 -6 -6 -6 -6 -6 -6 -6 -6 -6 -6 -6 -6 -5 -5 -5 -6 -6 -6 -6 -6 -6 -7 -6 -6 -6 -6 -6 -6 -6 -6 -6 -6 -6 -6 -6 -6 -6 -6
-6 -6 -6 -6 -6 -6 -6 -6 -6 -6 -6 -6 -6 -6 -6 -6 -6 -6 -5 -5 -6 -6 -6 -6 -6 -6 -6 -6 -6 -6 -6 -6 -6 -6 -6 -6 -6 -6 -6 -6 -6 -6
-7 -7 -7 -7 -6 -6 -6 -6 -6 -6 -6 -6 -6 -6 -6 -6 -6 -6 -6 -6 -5 -5 -6 -6 -6 -6 -6 -6 -6 -6 -6 -6 -6 -6 -6 -6 -6 -6 -7 -7 -7 -6
-7 -7 -7 -7 -7 -7 -7 -6 -6 -6 -6 -6 -6 -6 -6 -6 -6 -6 -6 -6 -6 -6 -6 -6 -6 -6 -6 -6 -6 -6 -6 -6 -6 -6 -6 -6 -6 -6 -7 -7 -7 -7
-7 -7 -7 -7 -7 -7 -7 -6 -6 -7 -7 -6 -6 -6 -7 -7 -7 -7 -7 -7 -6 -6 -6 -6 -6 -6 -6 -6 -6 -6 -6 -6 -6 -6 -6 -6 -6 -6 -7 -7 -7 -7
-7 -7 -7 -7 -7 -7 -6 -6 -7 -7 -7 -7 -7 -7 -7 -7 -7 -7 -7 -7 -7 -7 -7 -7 -7 -7 -7 -7 -7 -6 -6 -6 -6 -6 -6 -6 -6 -6 -6 -7 -7 -7
-7 -7 -7 -7 -6 -6 -6 -7 -7 -7 -7 -7 -7 -7 -7 -7 -7 -7 -7 -7 -7 -7 -7 -7 -7 -7 -7 -7 -7 -7 -7 -6 -6 -6 -6 -6 -6 -7 -7 -6 -6 -6
Height
5940 5941 5942 5943 5944 5944 5945 5946 5946 5947 5947 5948 5948 5948 5949 5949 5949 5949 5950 5950 5950 5951 5951 5951 5952 5952 5952 5952 5952 5953 5953 5953 5953 5954 5954 5954 5954 5954 5954 5954 5954 5955
5940 5941 5942 5942 5943 5944 5945 5946 5946 5947 5947 5948 5948 5948 5949 5949 5949 5949 5950 5950 5951 5951 5951 5951 5952 5952 5952 5952 5953 5953 5953 5953 5954 5954 5954 5954 5954 5954 5954 5954 5955 5955
5939 5940 5941 5942 5942 5943 5944 5945 5946 5946 5947 5947 5948 5948 5948 5949 5949 5949 5949 5950 5951 5951 5951 5951 5952 5952 5953 5953 5953 5953 5953 5954 5954 5954 5954 5954 5954 5954 5955 5955 5955 5955
5938 5939 5940 5941 5942 5943 5944 5944 5945 5946 5946 5947 5947 5948 5948 5948 5949 5949 5949 5950 5950 5951 5951 5951 5952 5952 5953 5953 5953 5953 5954 5954 5954 5954 5954 5954 5954 5954 5955 5955 5955 5955
5938 5939 5940 5941 5941 5942 5943 5944 5944 5945 5946 5946 5947 5947 5948 5948 5948 5949 5949 5949 5950 5950 5951 5951 5952 5952 5953 5953 5953 5954 5954 5954 5954 5954 5954 5954 5954 5954 5954 5954 5954 5954
5937 5938 5939 5940 5941 5942 5942 5943 5944 5945 5945 5946 5946 5946 5947 5948 5948 5948 5949 5949 5949 5950 5950 5951 5951 5952 5952 5953 5953 5953 5954 5954 5954 5954 5954 5954 5954 5954 5954 5954 5954 5954
5937 5937 5938 5939 5940 5941 5942 5943 5943 5944 5944 5945 5945 5946 5946 5947 5947 5948 5948 5949 5949 5950 5950 5950 5951 5951 5952 5952 5953 5953 5953 5953 5953 5953 5954 5954 5954 5954 5954 5954 5954 5954
5936 5937 5938 5939 5939 5940 5941 5941 5942 5943 5943 5944 5944 5945 5945 5946 5947 5947 5948 5948 5949 5949 5950 5950 5951 5951 5952 5952 5952 5953 5953 5953 5953 5953 5953 5953 5953 5953 5953 5953 5953 5953
5935 5936 5937 5938 5938 5939 5939 5940 5941 5941 5942 5943 5944 5944 5945 5945 5946 5947 5947 5948 5948 5949 5950 5950 5951 5951 5952 5952 5952 5952 5952 5952 5952 5952 5952 5952 5953 5953 5953 5953 5952 5952
5933 5935 5936 5937 5937 5938 5938 5939 5939 5940 5941 5942 5942 5943 5944 5944 5945 5946 5947 5947 5948 5948 5949 5949 5950 5950 5951 5951 5951 5951 5951 5952 5952 5952 5952 5952 5952 5952 5952 5952 5951 5951
5932 5933 5934 5935 5936 5936 5937 5937 5938 5939 5939 5940 5941 5942 5943 5944 5944 5945 5946 5947 5947 5948 5948 5948 5949 5949 5949 5950 5950 5950 5950 5950 5950 5951 5951 5951 5951 5951 5951 5950 5950 5950
5930 5931 5932 5933 5934 5934 5935 5936 5936 5937 5938 5939 5940 5941 5942 5942 5943 5944 5945 5945 5946 5947 5947 5947 5947 5948 5948 5948 5949 5949 5949 5949 5949 5949 5950 5950 5950 5950 5950 5949 5949 5949
5928 5929 5930 5931 5932 5933 5934 5934 5935 5936 5937 5937 5938 5939 5940 5940 5941 5942 5943 5944 5945 5945 5945 5946 5946 5947 5947 5948 5948 5948 5948 5948 5948 5948 5948 5948 5949 5949 5949 5949 5949 5948
5926 5927 5928 5929 5930 5931 5932 5933 5934 5935 5935 5936 5937 5937 5938 5938 5939 5940 5941 5942 5943 5943 5944 5944 5945 5945 5946 5946 5947 5947 5947 5947 5947 5947 5947 5947 5948 5948 5948 5948 5948 5947
5923 5925 5926 5927 5929 5930 5931 5932 5933 5933 5934 5935 5935 5935 5935 5936 5937 5938 5939 5940 5940 5941 5941 5942 5943 5943 5944 5944 5944 5945 5945 5945 5946 5946 5946 5946 5946 5946 5946 5946 5946 5946
5920 5922 5923 5925 5926 5928 5929 5929 5930 5931 5932 5933 5933 5933 5934 5934 5935 5936 5936 5937 5938 5938 5939 5940 5940 5940 5941 5941 5941 5942 5943 5943 5944 5944 5944 5944 5945 5945 5945 5945 5944 5944
5917 5918 5920 5921 5923 5924 5925 5926 5927 5928 5929 5930 5930 5931 5931 5932 5932 5933 5933 5934 5935 5936 5936 5937 5937 5937 5938 5938 5939 5939 5940 5940 5941 5942 5942 5942 5943 5943 5943 5942 5942 5942
5914 5915 5917 5918 5920 5921 5922 5923 5924 5925 5925 5926 5927 5928 5928 5929 5929 5930 5930 5931 5932 5932 5933 5934 5934 5934 5935 5936 5936 5937 5937 5937 5938 5939 5939 5940 5940 5940 5940 5940 5940 5940
5912 5914 5915 5917 5917 5918 5919 5920 5921 5922 5923 5923 5924 5924 5925 5926 5927 5927 5927 5928 5929 5929 5930 5930 5931 5931 5932 5933 5933 5934 5934 5935 5935 5935 5936 5936 5937 5937 5937 5937 5937 5938
5909 5911 5913 5914 5915 5915 5916 5916 5917 5918 5919 5920 5921 5922 5923 5924 5925 5925 5925 5926 5926 5927 5927 5927 5927 5928 5928 5929 5930 5930 5931 5931 5932 5932 5932 5933 5933 5933 5934 5934 5934 5934
5906 5908 5909 5911 5911 5912 5912 5913 5914 5914 5915 5916 5917 5918 5920 5921 5922 5923 5923 5924 5924 5925 5925 5924 5925 5925 5925 5926 5926 5926 5927 5927 5928 5928 5929 5929 5930 5930 5931 5931 5931 5931
5904 5905 5906 5907 5907 5908 5909 5910 5911 5912 5912 5912 5913 5914 5915 5917 5919 5920 5921 5921 5922 5922 5922 5922 5922 5922 5922 5922 5922 5923 5923 5923 5924 5924 5925 5926 5927 5927 5927 5928 5928 5928
5900 5902 5903 5904 5904 5904 5905 5906 5907 5908 5909 5910 5911 5911 5911 5912 5914 5915 5917 5918 5918 5919 5919 5919 5919 5919 5919 5919 5919 5919 5920 5920 5920 5921 5922 5923 5923 5924 5924 5924 5924 5924
5897 5898 5900 5900 5901 5900 5900 5901 5903 5904 5906 5908 5909 5909 5909 5908 5909 5911 5912 5913 5915 5915 5915 5916 5916 5916 5916 5916 5916 5916 5916 5917 5917 5917 5918 5919 5920 5920 5920 5920 5920 5920
5893 5894 5895 5896 5896 5896 5896 5898 5899 5900 5902 5904 5905 5906 5906 5906 5906 5906 5906 5908 5910 5911 5912 5912 5913 5913 5913 5913 5913 5913 5913 5913 5913 5913 5914 5915 5915 5915 5916 5916 5916 5916
5888 5890 5890 5890 5891 5891 5893 5895 5896 5896 5897 5899 5900 5901 5902 5903 5904 5903 5903 5903 5904 5905 5906 5908 5908 5909 5909 5909 5909 5909 5909 5908 5908 5909 5910 5910 5910 5911 5912 5912 5912 5911
Wind_Speed
15 15 14 13 12 12 11 10 9 9 8 8 8 7 7 6 6 6 8 9 9 9 9 9 9 8 8 8 8 7 7 7 6 6 6 6 5 5 5 6 6 6
16 16 15 15 14 13 13 12 11 10 9 9 9 9 8 7 7 7 8 9 9 8 8 8 8 8 7 7 7 7 6 6 5 5 5 5 4 4 5 4 4 4
17 17 17 16 15 14 14 13 12 11 11 10 10 9 9 8 8 8 8 9 8 8 7 7 7 7 6 6 6 5 5 5 5 4 4 4 4 4 4 4 4 4
17 16 16 16 16 16 15 14 14 13 12 10 9 9 9 9 9 9 9 9 8 8 7 7 6 6 5 5 5 4 4 4 4 3 3 3 3 3 3 4 4 4
16 16 16 16 16 16 15 15 14 13 12 10 9 9 8 9 9 10 10 9 9 8 7 7 6 5 5 4 4 4 4 3 3 2 2 2 2 3 3 3 3 4
17 17 16 16 15 15 14 14 13 12 11 10 10 9 9 9 9 10 10 10 10 9 8 7 6 6 5 4 4 4 3 3 3 3 3 3 3 3 3 3 4 4
18 18 18 17 16 15 14 13 13 13 12 11 10 10 9 9 10 10 10 10 10 10 9 8 7 7 6 6 5 5 4 4 4 4 4 4 4 3 3 4 4 4
17 18 18 17 17 16 15 14 13 13 12 12 11 10 10 10 10 11 11 11 10 10 10 9 8 8 7 7 7 7 6 6 6 6 6 5 5 5 5 5 5 5
17 17 17 17 17 16 15 15 14 13 12 12 12 11 12 12 11 11 11 11 11 10 10 9 9 9 8 8 8 8 8 8 8 8 8 8 7 7 7 7 7 7
16 16 17 17 17 17 16 15 14 14 13 12 12 12 12 12 12 12 12 12 12 11 10 10 9 9 9 9 9 9 9 9 9 9 9 9 9 8 8 8 9 9
16 16 16 16 17 17 17 16 15 14 14 13 13 13 13 13 13 13 13 13 12 12 11 11 11 11 10 10 9 9 9 9 10 10 10 10 9 9 10 10 10 11
18 17 16 16 16 17 17 16 16 15 14 14 14 14 14 14 14 14 14 13 13 13 13 13 13 13 12 11 11 10 10 10 10 10 10 11 11 11 11 12 12 12
20 19 18 18 17 17 17 16 16 15 15 15 15 14 15 15 15 15 15 15 15 15 15 15 15 14 14 13 12 12 12 11 11 10 11 12 12 12 13 13 13 12
22 21 20 19 18 17 17 16 16 16 15 15 14 14 15 16 17 17 16 16 16 17 17 17 16 16 15 15 15 14 14 14 12 12 12 12 12 12 13 14 14 14
25 23 22 21 20 19 18 18 17 16 16 15 15 15 16 16 16 16 16 17 18 18 19 18 18 17 17 17 17 17 17 16 15 15 14 14 13 13 13 14 15 15
27 26 24 23 22 22 22 21 20 19 18 17 17 17 17 16 16 16 16 17 18 19 19 19 19 19 19 19 19 19 18 18 18 17 17 16 15 15 15 15 16 16
29 28 27 25 25 25 24 24 24 23 21 21 20 20 20 19 18 18 18 18 18 19 19 19 20 20 21 21 21 21 21 21 20 20 19 18 17 17 18 18 18 18
30 30 28 27 27 26 26 26 27 26 26 25 25 24 24 23 22 21 21 21 20 19 20 21 22 22 22 22 23 23 23 22 22 22 21 21 20 20 21 21 20 20
29 29 28 27 27 27 27 27 28 28 28 28 28 27 27 26 25 25 24 23 22 22 22 22 22 23 23 23 23 23 23 23 24 24 24 23 23 23 23 23 22 22
29 28 27 27 27 28 29 29 29 29 29 29 29 29 28 28 27 27 26 25 24 23 23 24 24 24 24 24 24 24 24 24 25 25 25 24 24 24 24 24 23 23
28 28 27 27 28 29 31 31 31 31 30 30 30 29 29 29 29 28 28 27 27 26 26 25 25 26 26 25 25 25 25 26 26 25 25 25 25 25 25 26 25 25
29 28 26 27 29 31 32 31 30 31 31 31 31 30 29 29 29 29 29 29 29 28 28 28 27 27 27 27 27 26 26 26 27 26 26 26 25 25 26 26 26 26
33 30 27 28 30 32 33 32 31 31 31 31 31 30 29 29 28 29 29 30 31 30 30 30 29 29 29 29 28 28 28 27 27 27 26 26 26 26 26 26 27 28
34 32 29 29 32 34 35 33 31 31 31 31 31 31 30 29 28 28 29 29 30 31 31 30 29 29 29 29 30 30 29 29 28 28 28 27 27 27 27 27 28 29
35 33 31 31 34 36 35 32 31 32 33 33 33 32 32 31 29 29 31 31 30 30 31 30 30 29 29 29 30 30 30 31 31 30 29 28 28 29 29 29 30 31
32 32 32 34 36 37 36 34 34 34 33 32 33 34 34 33 32 32 34 35 34 32 32 32 32 31 31 31 31 32 32 33 33 32 31 30 31 32 31 32 33 34
Wind_Direction
187 186 185 187 188 188 189 188 189 190 188 187 186 184 185 185 180 170 163 162 159 157 156 153 151 151 151 152 152 154 160 166 169 175 182 187 189 191 194 203 213 217
193 193 193 194 195 196 197 195 195 194 192 191 188 187 189 190 185 177 171 167 162 159 159 157 154 155 157 156 152 152 156 158 165 173 179 187 197 205 209 218 226 232
196 197 199 199 199 200 199 199 200 198 196 195 194 193 193 191 188 183 178 175 170 165 163 161 160 161 162 159 155 156 161 164 170 181 187 190 203 218 229 238 243 249
198 199 200 200 201 201 200 200 202 202 200 200 201 202 197 191 190 187 183 181 179 175 173 171 169 169 168 165 163 167 173 177 183 197 208 206 212 229 243 255 267 274
197 198 199 200 201 201 201 201 202 203 203 204 207 208 201 193 190 190 188 188 187 186 185 183 183 186 186 184 184 183 185 192 199 213 231 236 240 248 254 266 280 287
199 200 200 201 202 203 205 206 205 206 208 209 211 212 207 199 194 192 193 194 194 194 196 197 197 201 206 212 216 216 213 216 224 239 257 264 267 267 269 275 283 288
206 206 206 205 206 207 210 212 213 214 215 213 214 215 212 207 203 200 200 201 202 202 204 206 208 212 219 226 233 240 244 245 246 251 260 266 268 267 269 274 279 283
214 216 215 213 213 213 214 216 217 218 217 215 214 214 214 214 213 210 209 209 211 211 213 216 220 224 228 233 239 243 247 249 248 247 249 254 258 260 263 267 270 272
219 223 224 222 220 220 220 220 220 221 221 219 216 215 217 219 220 219 217 217 218 220 223 226 231 235 238 243 245 246 247 248 248 247 246 247 251 254 258 263 267 270
220 223 226 228 227 227 227 226 225 224 224 224 222 221 222 222 223 225 224 223 224 226 229 233 238 241 243 247 250 252 253 253 252 252 251 252 253 255 257 261 265 269
219 221 224 228 231 231 232 231 230 230 229 230 230 230 229 227 228 230 230 230 232 234 236 237 241 245 247 250 252 255 258 258 258 257 258 259 259 258 257 258 262 267
221 222 223 227 230 232 235 234 233 234 234 235 236 236 235 233 233 234 234 236 238 241 243 244 245 248 250 252 254 256 258 259 261 263 264 264 264 263 261 260 260 262
225 225 225 226 229 232 237 238 237 237 238 239 241 242 241 238 237 238 238 239 241 243 245 247 249 251 252 255 257 259 259 258 258 262 264 265 267 268 268 267 265 264
230 229 228 229 230 233 236 240 240 239 239 240 242 244 245 243 241 239 238 240 242 244 245 248 250 253 255 257 258 259 260 260 259 260 263 264 266 266 267 268 268 267
234 233 232 232 233 234 236 238 240 240 239 239 240 241 244 245 244 243 241 240 242 243 244 245 248 252 254 255 256 256 257 258 258 259 261 262 263 262 262 264 266 267
234 235 235 235 236 236 237 237 238 239 240 240 240 241 242 243 245 246 245 243 242 243 243 242 244 247 248 249 251 252 253 256 257 259 260 262 263 263 262 262 264 266
232 233 233 234 236 237 238 238 238 238 237 238 239 240 241 241 241 242 243 242 242 242 242 241 242 243 244 245 248 250 252 255 257 259 261 264 265 266 265 265 265 266
231 231 231 232 234 236 238 239 239 239 237 236 236 237 238 239 239 239 239 239 239 240 242 243 244 246 247 249 250 252 254 256 259 261 265 267 268 267 267 267 267 266
236 235 234 234 235 236 237 240 241 243 243 243 241 241 240 241 241 241 241 240 239 239 240 243 247 250 252 253 254 255 256 258 261 264 267 269 270 270 270 271 271 269
238 238 237 238 238 238 238 238 238 240 243 246 247 248 247 246 246 246 247 246 245 243 242 242 244 247 250 252 254 256 257 259 260 263 265 268 270 271 273 274 274 274
239 238 238 238 240 242 241 240 239 239 239 240 242 245 247 249 250 251 251 251 250 249 248 247 246 246 248 251 253 255 257 260 262 264 266 268 270 273 274 276 277 277
240 239 240 240 241 242 243 244 245 244 242 241 240 241 243 246 250 253 254 254 254 252 251 251 251 251 252 253 254 255 257 260 262 265 267 268 270 271 273 276 277 278
239 238 241 244 243 243 244 243 245 246 246 245 244 244 243 244 246 249 252 254 255 255 255 253 253 254 255 256 257 258 258 259 261 263 265 266 269 271 273 275 276 277
239 239 243 246 246 246 244 243 245 250 251 249 247 246 245 245 245 248 252 254 255 254 254 253 254 255 256 257 258 259 260 260 261 261 262 263 265 266 268 270 272 274
238 238 239 242 246 248 246 244 249 256 257 253 248 246 247 247 246 246 249 253 255 254 252 251 252 253 254 256 258 260 261 261 262 263 264 265 265 265 266 269 271 273
238 238 238 241 247 250 249 247 250 256 259 254 249 247 247 249 250 249 248 249 251 252 251 250 251 252 254 256 258 260 261 262 264 266 267 269 269 270 272 274 276 277